Location: Unspecified
(0.0000°N, 0.0000°E)
Time: 08:07:36
(UTC+00:00)

deb Delta 104 - Pass Details

Date: 07 March 2026
Orbit: 1402 x 1485 km, 102.0° (Epoch: 18 April)

Event Time Altitude Azimuth Distance (km) Brightness Sun altitude
Rises 19:16:38 0° 183° (S) 4,483 ? -16.4°
Reaches altitude 10° 19:19:40 10° 192° (SSW) 3,513 ? -17.1°
Maximum altitude 19:26:50 35° 253° (WSW) 2,157 ? -18.9°
Drops below altitude 10° 19:34:06 10° 316° (NW) 3,555 ? -20.7°
Sets 19:37:14 0° 324° (NW) 4,543 ? -21.5°
